Regional Weather Roundup
Issued by NWS

Home | Current Version | Previous Version | Graphics & Text | Print | Product List | Glossary Off
Versions: 1 2 3 4 5 6 7 8 9 10 11 12 13 14 15 16 17 18 19 20 21 22 23 24 25 26 27 28 29 30 31 32 33 34 35 36 37 38 39 40 41 42 43 44 45 46 47 48 49 50

000
ASUS43 KTOP 280108
RWRKS

WEATHER ROUNDUP FOR KANSAS
NATIONAL WEATHER SERVICE GOODLAND KS
800 PM CDT FRI MAY 27 2016

NOTE:  "FAIR" INDICATES FEW OR NO CLOUDS BELOW 12,000 FEET WITH NO
SIGNIFICANT WEATHER AND/OR OBSTRUCTIONS TO VISIBILITY.

KSZ001>006-013>018-027>032-041>047-280200-
NORTHWEST KANSAS

CITY           SKY/WX    TMP DP  RH WIND       PRES   REMARKS
GOODLAND       CLOUDY    52  48  86 N20G26    29.78R
HAYS           CLOUDY    37 N/A N/A N14G23    29.64R THUNDER WCI  29
HILL CITY      PTCLDY    66  59  78 N7        29.69R
RUSSELL        CLOUDY    64  59  83 N8        29.62R
$$

KSZ061>065-074>080-084>089-280200-
SOUTHWEST KANSAS

CITY           SKY/WX    TMP DP  RH WIND       PRES   REMARKS
DODGE CITY     CLOUDY    68  46  45 SW9       29.63S
ELKHART          N/A     64  44  48 NW22        N/A
GARDEN CITY    PTCLDY    64  48  56 NW15G25   29.65R
GREAT BEND     CLEAR     70  55  60 S6        29.61S
LIBERAL        CLEAR     66  45  45 W23G29    29.71R
PRATT          CLEAR     70  55  59 S6        29.63S HAZE
$$

KSZ066>073-081>083-090>101-280200-
SOUTHEAST KANSAS

CITY           SKY/WX    TMP DP  RH WIND       PRES   REMARKS
CHANUTE        CLOUDY    73  66  78 S8        29.70R
COFFEYVILLE    MOCLDY    74  66  76 S8        29.70R
HUTCHINSON     PTCLDY    69  62  78 SE7       29.64R
MEDICINE LODGE   N/A     77  53  43 S5        29.62R
NEWTON         CLOUDY    61  54  77 E7        29.69R
PARSONS        CLOUDY    74  67  78 S3        29.71R
WICHITA INTL   CLOUDY    66  60  81 E16       29.65R
WICHITA JABRA  CLOUDY    62  59  90 E12       29.66R
WICHITA MCCONL MOCLDY    64  60  88 E12       29.66R
WINFIELD       CLOUDY    62  57  83 E10       29.66F
$$

KSZ007>012-019>026-033>040-048>060-102>105-280200-
NORTHEAST KANSAS

CITY           SKY/WX    TMP DP  RH WIND       PRES   REMARKS
CONCORDIA      CLOUDY    63  56  78 NW16      29.69R
EMPORIA        LGT RAIN  59  58  96 NW6       29.73R
LAWRENCE       CLOUDY    70  66  87 E3        29.71R
MANHATTAN      RAIN      62  57  83 SW14      29.73S
MARYSVILLE     TSTM      61  59  94 S10G18    29.71R
OLATHE IND     CLOUDY    69  63  81 S6        29.72R
OLATHE EXE     CLOUDY    70  63  78 SE5       29.71R
SALINA         PTCLDY    67  54  63 SE12      29.64R
TOPEKA BILLARD CLOUDY    65  57  75 W14G35    29.75R
TOPEKA FORBES  CLOUDY    67  56  67 W14G31    29.74R
$$




USA.gov is the U.S. government's official web portal to all federal, state and local government web resources and services.